Presure
180 185 176 173 198 198 283 348 321 380 362 355 213 327 334 338 356 374 361 334 382 390 405 394 355 303 326 317 312 229 223 206 180 173 189 137 87 96 186 112 185 117 182 183
178 203 197 226 250 217 276 340 324 374 351 335 327 325 350 374 389 383 375 383 395 395 410 391 405 303 313 320 253 250 242 196 185 186 186 195 77 151 120 178 191 177 188 180
192 197 197 201 234 246 291 335 323 366 363 323 338 360 397 387 384 389 389 381 385 402 395 403 384 374 299 325 318 307 236 212 211 203 183 183 101 83 116 89 180 161 175 168
187 215 206 196 231 242 262 330 312 361 348 323 360 364 365 369 371 391 391 399 404 383 408 401 400 396 302 316 323 227 231 201 196 190 184 172 181 202 168 119 84 182 164 171
205 192 196 216 239 233 246 319 314 358 323 333 355 332 343 336 338 344 351 348 365 431 451 432 411 386 328 309 326 243 228 211 204 200 188 186 195 161 136 91 154 168 159 163
213 192 218 194 235 243 239 270 326 373 342 325 351 326 333 329 323 328 328 343 349 363 369 469 498 425 405 313 325 242 225 212 194 194 207 182 167 189 187 165 189 172 161 152
206 218 198 200 208 238 253 262 331 358 345 326 329 345 322 314 319 310 313 326 336 352 366 386 442 527 433 326 323 327 304 210 213 197 195 201 201 178 164 182 88 95 102 82
193 212 201 204 205 225 245 263 294 317 352 323 329 327 288 326 319 318 318 325 325 330 405 390 405 446 530 434 321 286 238 211 215 205 195 186 192 172 185 159 142 91 165 175
184 219 217 202 211 219 239 257 311 335 359 333 315 311 327 303 305 310 306 314 319 320 334 397 407 432 472 550 326 338 232 223 221 219 204 193 180 188 171 160 173 181 165 96
201 209 204 206 196 224 241 262 318 305 349 347 303 329 308 314 298 321 310 323 319 340 348 419 418 421 476 502 449 331 254 230 222 201 203 190 190 183 181 181 164 174 177 102
202 224 197 204 209 205 241 248 305 312 354 344 317 329 315 298 322 315 313 319 330 342 375 410 465 443 466 526 562 327 218 229 219 199 206 193 181 175 178 181 146 166 158 153
162 209 204 194 212 214 197 247 291 311 371 343 323 331 314 317 307 304 306 307 328 346 386 448 456 482 488 567 583 347 225 227 220 218 197 199 189 185 177 174 168 161 170 174
212 210 189 184 208 233 239 256 263 320 373 343 333 326 315 299 291 296 302 308 325 357 368 428 489 499 481 559 620 585 231 284 222 200 199 208 204 189 181 173 176 159 163 159
206 190 208 218 188 216 231 239 264 325 378 356 342 333 290 300 299 298 308 315 325 362 407 410 428 507 494 561 591 537 227 226 213 201 213 203 188 202 199 179 178 173 194 179
187 190 193 184 211 221 226 253 263 317 372 354 336 317 315 299 300 307 317 308 336 369 371 419 413 497 549 587 522 519 222 203 218 209 230 189 193 197 194 163 168 170 193 174
209 173 171 235 223 234 226 225 285 269 302 342 341 319 296 290 304 292 313 314 322 349 364 398 418 501 517 553 508 525 212 213 213 203 201 209 203 183 198 168 180 193 179 181
220 219 188 225 216 221 213 245 261 276 331 368 340 338 303 303 301 309 301 315 329 365 358 402 423 484 505 509 497 503 296 169 215 201 212 209 212 184 177 183 192 173 176 171
207 196 209 215 210 207 223 241 254 291 267 369 346 336 311 292 305 304 300 328 345 375 367 403 483 518 548 507 518 625 271 165 230 147 232 189 186 190 195 184 170 179 198 169
221 214 214 220 230 200 204 252 221 268 269 299 361 347 299 288 293 299 312 320 121 355 380 416 501 580 602 526 631 330 317 260 218 211 211 184 181 196 193 200 194 170 179 180
217 216 204 190 226 221 202 237 246 270 267 385 362 351 314 315 309 299 307 310 341 349 361 417 544 596 588 619 571 314 314 216 222 227 198 183 187 181 187 177 170 169 172 186
194 211 201 203 211 230 213 225 251 280 291 315 366 350 315 324 305 326 321 318 362 326 347 386 405 528 562 522 317 298 297 216 208 243 185 208 182 213 177 181 178 164 181 210
202 197 217 211 224 224 196 232 246 280 292 305 317 335 327 300 299 307 313 322 335 336 201 372 431 149 455 405 245 283 287 268 222 218 199 192 187 188 187 177 173 186 171 173
205 192 219 222 193 219 210 222 270 268 291 343 301 334 309 328 299 288 312 305 304 321 340 275 422 403 387 299 283 280 286 264 269 219 224 201 150 184 193 183 174 168 181 189
200 210 204 221 202 226 255 242 242 259 273 304 299 353 332 322 299 296 287 304 292 314 305 336 326 330 357 282 274 271 272 232 175 226 205 207 105 190 172 157 174 178 131 175
197 193 205 219 206 230 230 224 222 271 276 300 310 356 325 317 306 300 299 296 306 325 307 319 346 381 280 267 261 271 280 236 241 208 221 215 209 190 182 182 191 179 167 178
206 207 204 204 212 221 234 265 249 284 290 299 310 327 314 303 308 300 291 300 307 342 311 315 305 302 271 257 254 277 264 228 252 200 220 195 179 186 183 164 179 187 163 169
Wind_Speed
100 102 93 93 119 116 121 99 91 61 60 54 29 54 54 55 57 33 32 37 30 38 52 57 95 111 111 115 116 117 113 111 107 95 101 81 45 61 76 60 64 66 63 62
99 101 108 116 132 119 128 106 96 61 65 57 57 61 62 55 34 27 28 29 30 34 45 58 57 113 112 116 120 119 118 112 108 108 98 98 37 72 70 79 75 72 60 64
102 102 111 117 119 129 131 108 101 69 60 59 60 56 48 40 37 27 18 15 19 25 43 54 62 85 113 116 120 121 130 125 127 116 111 101 77 46 72 58 73 74 68 70
96 96 107 118 119 129 136 110 103 72 67 64 57 47 39 38 36 28 25 26 24 23 30 52 63 65 117 118 123 130 138 121 121 121 113 103 105 91 98 79 37 65 80 71
93 105 112 112 128 120 141 115 105 74 64 62 50 48 40 39 42 39 33 24 27 21 29 34 60 71 124 122 126 135 144 137 133 127 122 113 97 96 79 64 84 80 81 76
99 106 121 112 132 138 128 137 109 64 66 62 51 50 40 40 34 32 30 31 22 22 14 22 30 70 78 127 129 137 148 141 123 127 120 107 100 93 95 82 69 84 74 56
100 112 109 112 120 135 148 144 105 75 65 64 57 38 39 38 36 33 31 31 30 27 23 17 20 30 76 133 133 135 139 140 142 129 125 108 112 102 92 81 55 55 67 39
101 111 109 114 119 129 150 143 121 108 63 63 58 43 51 37 33 33 32 36 33 31 38 26 22 24 36 87 132 134 158 137 144 136 127 120 121 111 103 95 80 58 81 85
104 120 124 113 124 131 147 143 116 86 58 54 63 53 43 39 32 33 31 34 34 30 28 33 30 27 28 43 134 136 152 151 143 146 139 131 120 122 107 91 102 94 83 70
88 109 111 118 115 137 149 149 111 112 70 56 55 50 48 37 34 33 26 37 31 41 45 49 28 29 28 37 96 134 148 153 152 134 143 130 108 122 110 110 103 90 90 41
88 130 103 125 126 114 151 149 120 108 59 62 53 52 43 46 45 41 42 54 47 57 61 60 27 29 33 36 44 135 140 155 151 127 142 133 116 102 117 118 85 98 91 79
92 107 109 107 130 127 104 147 129 106 50 56 54 52 39 42 51 54 57 49 63 69 67 47 34 26 23 29 39 138 156 161 153 156 129 124 132 124 112 107 106 97 95 97
122 119 95 102 121 148 156 147 142 105 56 55 54 47 42 48 52 53 56 56 64 70 56 48 32 23 21 23 30 45 166 151 163 130 136 137 139 132 124 110 111 94 99 90
109 105 122 138 116 143 158 145 143 106 55 52 55 35 54 44 47 47 53 56 63 62 47 32 38 25 23 21 31 56 162 168 162 143 143 134 128 137 135 117 109 112 102 112
80 94 101 103 134 145 156 148 142 112 65 54 46 46 40 49 49 51 55 54 62 54 45 43 29 27 17 15 44 61 160 153 170 160 148 118 137 129 136 102 105 109 102 108
107 88 98 145 144 149 151 129 132 128 107 60 49 41 55 53 48 47 57 54 51 47 41 45 39 19 13 22 43 48 134 167 167 138 141 150 145 127 123 106 121 111 112 108
122 127 85 137 137 144 137 141 141 123 101 53 50 31 42 47 48 51 51 51 58 46 45 48 43 30 8 25 37 48 140 116 136 149 139 143 137 128 120 127 112 101 116 106
103 87 94 118 123 122 146 152 138 120 122 60 51 36 40 55 54 55 53 58 65 46 49 56 39 15 12 24 29 30 140 83 160 88 141 129 130 129 126 123 107 107 111 105
131 110 105 123 143 110 120 142 120 128 117 95 44 27 50 52 48 46 50 63 13 50 56 53 31 6 10 26 33 131 133 144 158 156 149 112 106 131 122 128 126 102 106 112
127 125 85 90 131 137 104 153 112 123 115 52 43 28 32 28 26 26 41 53 53 45 52 49 19 6 21 34 63 124 125 149 141 145 146 118 127 119 123 111 103 95 97 106
77 120 111 104 110 136 131 151 141 121 111 97 38 21 34 31 37 49 48 49 46 36 52 51 27 46 50 64 117 119 124 150 145 141 117 138 123 127 111 110 116 97 112 100
111 87 125 110 136 119 88 125 139 121 113 96 79 25 25 41 36 49 49 47 33 43 21 41 46 9 50 84 88 119 124 132 144 148 144 138 131 122 130 112 117 109 103 101
118 78 123 144 90 123 133 139 128 124 113 86 85 30 38 22 25 25 42 36 29 38 45 19 40 55 74 124 121 125 126 128 125 134 130 141 44 131 112 123 112 86 117 105
110 132 98 149 98 155 142 153 136 125 115 103 82 16 14 15 21 30 29 37 27 26 33 46 30 60 63 112 111 112 116 132 58 132 111 135 35 132 102 73 112 117 28 84
107 110 105 145 116 152 153 143 138 117 110 109 75 21 14 12 17 21 34 31 30 20 29 31 24 48 114 116 118 122 130 135 129 140 128 131 127 135 120 119 120 117 96 111
125 128 111 106 126 149 157 123 126 109 105 104 70 55 35 31 9 14 24 33 30 25 28 27 23 74 111 111 108 108 112 120 116 129 125 127 89 128 105 76 111 117 82 91
Wind_Direction
327 329 338 343 331 337 354 347 351 338 339 346 346 335 330 324 314 290 283 245 263 246 233 224 215 215 211 210 209 191 195 199 220 222 205 224 228 222 218 231 222 224 229 230
334 323 334 353 4 344 357 351 352 344 342 350 344 335 324 320 320 296 278 273 253 240 235 225 224 211 210 208 199 192 186 206 214 209 202 195 226 214 222 223 221 223 223 230
342 330 329 334 1 358 354 352 355 346 343 351 346 331 329 328 331 325 299 276 259 255 231 225 214 211 208 206 206 202 185 192 190 189 210 208 223 224 219 225 226 229 228 230
333 345 333 334 360 1 2 354 358 350 350 352 349 356 6 18 21 9 347 327 300 256 249 228 220 212 206 204 204 189 185 201 203 206 207 217 205 191 205 223 242 225 227 231
339 337 334 353 5 3 5 358 359 354 349 353 353 357 7 9 14 14 16 8 2 314 278 245 224 208 202 203 202 186 185 193 193 197 207 202 190 222 221 228 225 224 226 227
356 335 360 342 0 4 3 1 358 349 350 355 358 354 6 17 12 8 358 359 349 344 298 284 258 221 208 201 201 193 186 194 205 205 186 207 217 191 203 216 204 220 220 226
353 0 337 343 353 4 1 1 358 354 352 354 3 2 0 3 9 359 352 345 336 329 316 286 282 250 220 202 200 197 192 196 187 202 194 185 183 199 207 199 229 228 222 232
334 356 341 345 351 4 5 3 359 359 352 354 360 355 1 6 6 9 2 6 347 322 325 302 272 255 238 216 202 190 186 198 188 188 195 199 188 219 192 219 223 228 226 224
338 7 7 348 358 2 5 3 359 356 349 2 349 357 344 358 360 358 360 355 342 316 315 299 281 256 241 238 201 198 189 190 188 177 185 190 208 200 213 217 211 208 220 237
354 359 357 358 350 2 5 2 359 359 348 358 350 356 358 353 1 6 353 3 331 346 337 338 269 259 251 233 210 198 191 189 184 196 186 197 200 205 201 200 220 212 220 217
353 9 353 1 358 353 4 7 0 360 344 347 357 354 352 355 359 7 6 1 354 349 340 333 298 261 258 248 233 195 191 188 189 202 187 197 208 209 208 203 224 220 226 227
349 9 3 353 3 358 359 6 1 1 348 344 357 349 357 359 6 7 1 355 356 347 341 329 318 285 270 250 234 195 189 187 188 183 203 197 199 202 211 209 216 223 220 223
359 3 348 343 0 5 7 4 3 360 351 349 0 354 3 2 1 3 358 357 355 347 340 350 331 284 256 263 235 208 187 187 184 202 203 187 191 198 207 215 211 225 223 228
4 358 3 5 357 3 5 6 2 0 352 357 351 5 4 4 5 2 358 360 350 343 350 344 353 329 265 262 219 193 185 182 190 200 188 191 202 196 199 209 206 212 208 217
350 358 356 344 4 6 4 1 2 360 356 356 3 358 3 2 5 6 5 4 346 345 358 359 1 335 309 248 191 196 185 184 185 192 183 206 198 200 198 213 216 216 207 218
5 340 340 359 5 5 4 2 0 1 4 358 2 358 357 358 7 4 12 1 357 354 356 356 357 330 300 211 195 193 188 188 187 199 197 189 192 202 193 214 206 201 211 215
358 1 342 2 2 5 1 3 2 2 360 352 359 356 354 356 7 11 13 5 1 346 359 350 342 329 254 203 190 186 180 190 194 197 196 186 186 199 204 201 198 215 214 222
3 352 2 355 356 2 3 3 2 2 2 355 357 356 1 2 7 8 1 2 356 2 5 357 349 320 278 181 177 176 179 185 184 199 182 201 200 193 192 201 214 209 205 219
355 355 3 359 2 358 358 4 3 1 2 360 359 360 359 1 11 7 13 13 14 17 10 4 354 333 172 164 168 173 175 185 186 189 188 206 208 191 194 195 199 220 212 217
355 359 2 348 2 3 357 3 360 1 360 357 2 5 358 15 32 26 29 20 9 27 27 2 42 161 164 158 149 173 173 188 186 185 193 206 202 209 199 210 215 222 224 219
355 353 0 350 359 356 2 1 1 0 1 1 358 13 2 33 28 33 30 25 6 47 47 32 63 95 117 130 167 172 174 188 193 184 200 191 209 196 206 206 211 219 216 215
358 353 356 356 358 1 349 356 0 359 1 359 2 10 29 2 41 46 42 49 38 53 41 32 98 151 130 150 168 174 179 184 186 187 197 200 205 198 205 214 217 216 224 224
354 353 348 355 353 0 1 360 359 359 2 359 3 356 3 39 43 36 58 57 52 62 52 38 104 129 145 165 173 179 180 178 179 187 189 197 212 208 200 207 214 226 219 218
354 351 353 352 356 355 356 357 357 358 356 1 1 350 9 59 29 64 68 57 65 53 106 93 129 128 159 170 172 175 179 182 197 185 195 197 210 203 210 223 218 217 212 223
352 348 354 348 356 355 356 357 356 356 356 359 359 348 10 36 54 64 73 73 60 83 104 95 101 160 166 172 177 181 181 183 185 194 191 193 196 203 212 212 208 217 226 223
347 349 350 353 351 352 355 350 354 355 356 359 358 357 356 356 85 78 88 76 76 91 127 91 123 165 172 177 183 184 182 184 184 199 195 207 210 204 213 215 216 212 235 230